Simultaneous Nadir Overpasses (SNOs) Predictions

Prediction of SNOs between LANDSAT-8 and METOP-A Satellite Orbit:

Table of predicted SNOs for the next 14.0 days since TLE Epoch: 4/20/2017
Index Date (LANDSAT-8) Time (LANDSAT-8) Lat,Lon (LANDSAT-8) SZA (LANDSAT-8 ) Date (METOP-A) Time (METOP-A) Lat,Lon (METOP-A) SZA (METOP-A ) Distance(km) Time Diff (sec)
1 04/22/2017 14:06:20 -81.15,-171.96 109.14 04/22/2017 14:05:15 -81.15,-171.78 109.14 3.13 65
2 04/22/2017 14:55:46 81.15, -4.24 70.87 04/22/2017 14:55:55 81.15, -4.34 70.86 1.68 9
3 04/25/2017 09:40:34 -81.13,-105.78 110.08 04/25/2017 09:39:38 -81.13,-105.84 110.11 0.95 56
4 04/25/2017 10:29:59 81.16, 62.28 69.97 04/25/2017 10:30:16 81.16, 62.34 69.99 1.18 17
5 04/28/2017 05:14:46 -81.13, -39.28 110.96 04/28/2017 05:13:58 -81.14, -39.16 110.96 2.08 48
6 04/28/2017 06:04:11 81.16, 128.75 69.10 04/28/2017 06:04:37 81.15, 128.63 69.09 2.24 26
7 05/01/2017 00:48:59 -81.13, 27.19 111.81 05/01/2017 00:48:20 -81.13, 27.12 111.83 1.26 39
8 05/01/2017 01:38:24 81.16,-164.80 68.24 05/01/2017 01:38:58 81.16,-164.73 68.27 1.37 34
9 05/03/2017 20:23:12 -81.13, 93.62 112.63 05/03/2017 20:22:41 -81.14, 93.75 112.62 2.46 31




NCC Satellite Simultaneous Nadir Overpasses (SNOs) Prediction Service
